Weather in Novoandreyevka

Russia / Altai Krai     53°02′25″N   78°23′01″E
temp.,
°C
wind,
m/s
gust,
m/s
humid.,
%
clouds,
%
prec.,
mm/h
press.,
hPa
HPBL,
m
30 november, tue
tue3001:00−10s3785100 0.0 103095
04:00−11s3487100 0.0 102958
07:00−11ssw3487100 0.0 102954
10:00−11s3486100 0.0 102853
13:00−8ssw3583100 0.0 1028108
16:00−8ssw2384100 0.0 102746
19:00−12ssw2287100 0.0 102824
22:00−14ssw228814 0.0 102831
1 december, wed
wed101:00−17sw22925 0.0 102911
04:00−17s22905 0.0 102816
07:00−17ssw22945 0.0 102911
10:00−14s46885 0.0 102961
13:00−8ssw37865 0.0 1028149
16:00−7s34875 0.0 102751
19:00−13sse22925 0.0 102815
22:00−11sse46915 0.0 102664
2 december, thu
thu201:00−12s23905 0.0 102531
04:00−12sse34905 0.0 102447
07:00−11sse36885 0.0 102373
10:00−11sse47865 0.0 102282
13:00−6s38835 0.0 1021149
16:00−5sse410845 0.0 1019141
19:00−5sse512835 0.0 1017143
22:00−3sse6157714 0.0 1016221
3 december, fri
fri301:00−1s81869100 0.0 1013280
04:000s8176967 0.0 1012351
07:00−1s81676100 0.0 1010274
10:00+1s71578100 0.0 1009322
13:00+1sw713100100 0.8 1010506
16:00+1wsw71298100 1.6 1012516
19:000w71188100 1.6 1015721
22:00−4w51289100 0.0 1018285
4 december, sat
sat401:00−6wsw612925 0.0 1021266
04:00−8wsw613905 0.0 1023275
07:00−8sw61290100 0.0 1026328
10:00−6sw61288100 0.0 1027392
13:00−5sw71292100 0.0 1028531
16:00−4wsw6129293 0.1 1029521
19:00−5sw51193100 0.1 1031262
22:00−7sw3796100 0.0 1033109